CZ-3C DEB

基本信息
目录编号:
40867
目录名称:
CZ-3C DEB
国际标识:
2012-008AH
轨道中心:
EARTH
物体状态:
在轨
发射日期:
2012-02-24 UTC
轨道信息
数据来源: 国际轨道数据
星历时间: 2024-10-24T16:27:57+0800
半长轴: 24543.611km
偏心率: 0.7183143
轨道倾角: 21.406°
近地点辐角: 222.333°
升交点赤经: 188.751°
平近点角: 51.545°
近地点: 535.449km
远地点: 35795.503km
周期: 637.775分钟
每日圈数: 2.25785
详细信息
发射场:
XSC
轨道高度:
LEO
数据来源:
AOE Integration Group
参考系:
TEME
时间系统:
UTC
历元类型:
SGP4
2D轨道图
3D轨道图
轨道高度分析图
轨道倾角分析图
轨道综合分析图
查看轨道综合分析图